�������ċp�F�����K�X���j�^�v���󋵏��
Date,Time,�ċp�F�����K�X���j�^(cps),����,����(m/s)
2022/05/06,00:00,1.5,��,4.2
2022/05/06,00:10,1.4,��,4.7
2022/05/06,00:20,1.5,��,6.1
2022/05/06,00:30,1.5,��,7.6
2022/05/06,00:40,1.4,��,6.9
2022/05/06,00:50,1.5,��,6.0
2022/05/06,01:00,1.5,��,5.1
2022/05/06,01:10,1.4,��쐼,4.1
2022/05/06,01:20,1.4,�쐼,3.2
2022/05/06,01:30,1.4,���쐼,3.7
2022/05/06,01:40,1.4,�쐼,2.5
2022/05/06,01:50,1.5,�쐼,2.6
2022/05/06,02:00,1.5,��쐼,3.0
2022/05/06,02:10,1.5,��,2.3
2022/05/06,02:20,1.4,��,1.9
2022/05/06,02:30,1.5,��,1.2
2022/05/06,02:40,1.4,��쓌,1.7
2022/05/06,02:50,1.5,��쓌,2.3
2022/05/06,03:00,1.4,��쓌,2.3
2022/05/06,03:10,1.4,��,1.4
2022/05/06,03:20,1.4,��,1.7
2022/05/06,03:30,1.5,��,1.4
2022/05/06,03:40,1.5,��,1.2
2022/05/06,03:50,1.5,��쐼,1.5
2022/05/06,04:00,1.5,��,0.6
2022/05/06,04:10,1.4,-,CALM
2022/05/06,04:20,1.5,-,CALM
2022/05/06,04:30,1.5,��쐼,0.9
2022/05/06,04:40,1.5,-,CALM
2022/05/06,04:50,1.5,��쓌,0.8
2022/05/06,05:00,1.4,��쓌,0.9
2022/05/06,05:10,1.5,��쓌,2.0
2022/05/06,05:20,1.5,�쓌,2.0
2022/05/06,05:30,1.5,�쓌,2.8
2022/05/06,05:40,1.5,��쓌,2.8
2022/05/06,05:50,1.5,��쓌,3.1
2022/05/06,06:00,1.4,��쓌,2.8
2022/05/06,06:10,1.4,��,2.5
2022/05/06,06:20,1.4,��,2.8
2022/05/06,06:30,1.5,��,3.9
2022/05/06,06:40,1.4,��,4.4
2022/05/06,06:50,1.4,��,3.5
2022/05/06,07:00,1.4,��,2.8
2022/05/06,07:10,1.5,��,2.3
2022/05/06,07:20,1.4,��쐼,1.5
2022/05/06,07:30,1.5,��,2.0
2022/05/06,07:40,1.5,��쐼,1.4
2022/05/06,07:50,1.5,�쐼,0.9
2022/05/06,08:00,1.4,��쓌,2.0
2022/05/06,08:10,1.4,��쓌,2.0
2022/05/06,08:20,1.5,��쓌,2.6
2022/05/06,08:30,1.4,��쓌,3.9
2022/05/06,08:40,1.5,��,5.5
2022/05/06,08:50,1.4,��쓌,6.2
2022/05/06,09:00,1.5,��,7.1
2022/05/06,09:10,1.4,��,5.8
2022/05/06,09:20,1.6,��,6.1
2022/05/06,09:30,1.5,��,7.9
2022/05/06,09:40,1.4,��,9.6
2022/05/06,09:50,1.6,��,9.1
2022/05/06,10:00,1.5,��,11.0
2022/05/06,10:10,1.4,��쓌,12.7
2022/05/06,10:20,1.5,��,11.4
2022/05/06,10:30,1.4,��,12.0
2022/05/06,10:40,1.4,��,11.6
2022/05/06,10:50,1.5,��,10.9
2022/05/06,11:00,1.4,��,10.7
2022/05/06,11:10,1.5,��쓌,10.9
2022/05/06,11:20,1.5,��,11.0
2022/05/06,11:30,1.4,��쓌,13.3
2022/05/06,11:40,1.5,��쓌,15.2
2022/05/06,11:50,1.4,��,14.2
2022/05/06,12:00,1.4,��,13.9
2022/05/06,12:10,1.6,��,15.2
2022/05/06,12:20,1.5,��쓌,13.3
2022/05/06,12:30,1.4,��쓌,13.9
2022/05/06,12:40,1.5,��쓌,14.1
2022/05/06,12:50,1.4,��쓌,15.2
2022/05/06,13:00,1.5,��쓌,15.2
2022/05/06,13:10,1.3,��쓌,16.8
2022/05/06,13:20,1.5,��쓌,16.0
2022/05/06,13:30,1.4,��,14.4
2022/05/06,13:40,1.4,��쓌,14.4
2022/05/06,13:50,1.4,��쓌,12.7
2022/05/06,14:00,1.3,��,13.0
2022/05/06,14:10,1.4,��,10.2
2022/05/06,14:20,1.4,��,10.5
2022/05/06,14:30,1.4,��,12.4
2022/05/06,14:40,1.4,��쓌,13.2
2022/05/06,14:50,1.4,��,13.3
2022/05/06,15:00,1.4,��,13.3
2022/05/06,15:10,1.5,��쓌,11.4
2022/05/06,15:20,1.5,��쓌,13.3
2022/05/06,15:30,1.5,��쓌,12.2
2022/05/06,15:40,1.5,��,12.2
2022/05/06,15:50,1.4,��,11.0
2022/05/06,16:00,1.4,��,11.6
2022/05/06,16:10,1.4,��,12.5
2022/05/06,16:20,1.4,��,12.1
2022/05/06,16:30,1.5,��,11.8
2022/05/06,16:40,1.5,��,10.7
2022/05/06,16:50,1.5,��,10.4
2022/05/06,17:00,1.4,��,9.9
2022/05/06,17:10,1.4,��,9.7
2022/05/06,17:20,1.5,��,8.3
2022/05/06,17:30,1.4,��,7.9
2022/05/06,17:40,1.4,��쐼,6.7
2022/05/06,17:50,1.4,��,8.6
2022/05/06,18:00,1.5,��,8.1
2022/05/06,18:10,1.4,��,9.0
2022/05/06,18:20,1.6,��,10.6
2022/05/06,18:30,1.4,��,8.8
2022/05/06,18:40,1.5,��,9.0
2022/05/06,18:50,1.5,��,9.1
2022/05/06,19:00,1.4,��,8.4
2022/05/06,19:10,1.5,��,9.1
2022/05/06,19:20,1.4,��,8.6
2022/05/06,19:30,1.5,��,9.7
2022/05/06,19:40,1.4,��,9.9
2022/05/06,19:50,1.5,��,10.4
2022/05/06,20:00,1.4,��,9.2
2022/05/06,20:10,1.3,��,8.4
2022/05/06,20:20,1.4,��,9.1
2022/05/06,20:30,1.5,��,10.0
2022/05/06,20:40,1.4,��,9.7
2022/05/06,20:50,1.5,��,9.8
2022/05/06,21:00,1.5,��,9.4
2022/05/06,21:10,1.4,��,9.0
2022/05/06,21:20,1.4,��,9.4
2022/05/06,21:30,1.5,��,8.3
2022/05/06,21:40,1.4,��,10.4
2022/05/06,21:50,1.4,��,9.1
2022/05/06,22:00,1.4,��,8.0
2022/05/06,22:10,1.4,��,7.9
2022/05/06,22:20,1.5,��,6.8
2022/05/06,22:30,1.5,��,7.9
2022/05/06,22:40,1.5,��,7.6
2022/05/06,22:50,1.4,��,8.8
2022/05/06,23:00,1.5,��,9.1
2022/05/06,23:10,1.4,��,9.1
2022/05/06,23:20,1.4,��,9.2
2022/05/06,23:30,1.5,��,9.6
2022/05/06,23:40,1.5,��,8.8
2022/05/06,23:50,1.4,��,9.6
